| time (UTC) | temp F | wind direction | speed knots | gust knots | rain 1hr in | rain 24hr in | rain mn in | humidity % | barometer mb |
| 20260505001559 | 61 | 0 | 0.0 | 0.0 | 0.00 | 0.00 | 0.00 | 47 | 1005.6 |
| 20260505000058 | 63 | 0 | 0.0 | 0.0 | 0.00 | 0.00 | 0.00 | 44 | 1005.3 |
| 20260504234600 | 65 | 0 | 0.0 | 0.0 | 0.00 | 0.00 | 0.00 | 41 | 1005.2 |
| 20260504233102 | 67 | 0 | 0.0 | 2.6 | 0.00 | 0.00 | 0.00 | 37 | 1005.0 |
| 20260504231557 | 68 | 323 | 0.9 | 4.3 | 0.00 | 0.00 | 0.00 | 38 | 1004.9 |
| 20260504230103 | 69 | 73 | 0.0 | 2.6 | 0.00 | 0.00 | 0.00 | 36 | 1004.6 |
| 20260504224559 | 70 | 217 | 0.0 | 6.1 | 0.00 | 0.00 | 0.00 | 35 | 1004.4 |
| 20260504223104 | 70 | 145 | 1.7 | 6.1 | 0.00 | 0.00 | 0.00 | 33 | 1004.3 |
| 20260504221607 | 70 | 206 | 1.7 | 4.3 | 0.00 | 0.00 | 0.00 | 34 | 1004.3 |
| 20260504220135 | 70 | 311 | 1.7 | 5.2 | 0.00 | 0.00 | 0.00 | 34 | 1004.4 |
| 20260504214558 | 70 | 245 | 2.6 | 6.1 | 0.00 | 0.00 | 0.00 | 34 | 1004.4 |
| 20260504213128 | 71 | 259 | 1.7 | 3.5 | 0.00 | 0.00 | 0.00 | 33 | 1004.2 |
| 20260504211600 | 71 | 263 | 2.6 | 7.8 | 0.00 | 0.00 | 0.00 | 33 | 1004.2 |
| 20260504210104 | 71 | 133 | 2.6 | 5.2 | 0.00 | 0.00 | 0.00 | 34 | 1004.3 |
| 20260504204619 | 71 | 271 | 0.9 | 7.8 | 0.00 | 0.00 | 0.00 | 33 | 1004.2 |
| 20260504203100 | 72 | 266 | 3.5 | 10.4 | 0.00 | 0.00 | 0.00 | 32 | 1004.2 |
| 20260504201609 | 73 | 281 | 1.7 | 6.1 | 0.00 | 0.00 | 0.00 | 31 | 1004.2 |
| 20260504200111 | 72 | 255 | 2.6 | 9.6 | 0.00 | 0.00 | 0.00 | 31 | 1004.2 |
| 20260504194558 | 71 | 315 | 2.6 | 7.8 | 0.00 | 0.00 | 0.00 | 34 | 1004.3 |
| 20260504193103 | 72 | 260 | 2.6 | 8.7 | 0.00 | 0.00 | 0.00 | 31 | 1004.3 |
| 20260504191559 | 71 | 218 | 3.5 | 8.7 | 0.00 | 0.00 | 0.00 | 32 | 1004.3 |
| 20260504190101 | 71 | 20 | 5.2 | 13.9 | 0.00 | 0.00 | 0.00 | 31 | 1004.2 |
| 20260504184602 | 70 | 66 | 2.6 | 6.1 | 0.00 | 0.00 | 0.00 | 32 | 1004.4 |
| 20260504183105 | 70 | 228 | 2.6 | 8.7 | 0.00 | 0.00 | 0.00 | 31 | 1004.7 |
| 20260504181614 | 69 | 142 | 2.6 | 7.0 | 0.00 | 0.00 | 0.00 | 31 | 1004.6 |
| 20260504180059 | 72 | 243 | 1.7 | 7.8 | 0.00 | 0.00 | 0.00 | 29 | 1004.7 |
| 20260504174559 | 72 | 205 | 4.3 | 10.4 | 0.00 | 0.00 | 0.00 | 29 | 1004.7 |
| 20260504173101 | 70 | 233 | 3.5 | 11.3 | 0.00 | 0.00 | 0.00 | 31 | 1004.6 |
| 20260504171606 | 70 | 310 | 1.7 | 7.8 | 0.00 | 0.00 | 0.00 | 32 | 1004.9 |
| 20260504100103 | 39 | 0 | 0.0 | 0.0 | 0.00 | 0.01 | 0.00 | 76 | 1008.3 |
| 20260504081600 | 42 | 0 | 0.0 | 0.0 | 0.00 | 0.01 | 0.00 | 73 | 1008.2 |
| 20260504044557 | 36 | 0 | 0.0 | 0.0 | 0.00 | 0.01 | 0.00 | 82 | 1008.2 |
| 20260504043100 | 36 | 0 | 0.0 | 0.0 | 0.00 | 0.01 | 0.00 | 80 | 1008.2 |
| 20260504041559 | 36 | 0 | 0.0 | 0.9 | 0.00 | 0.01 | 0.00 | 82 | 1008.2 |
| 20260504040100 | 36 | 0 | 0.0 | 0.0 | 0.00 | 0.01 | 0.00 | 83 | 1008.1 |
| 20260504034559 | 36 | 0 | 0.0 | 0.0 | 0.00 | 0.01 | 0.01 | 84 | 1007.9 |
| 20260504033102 | 36 | 0 | 0.0 | 0.9 | 0.00 | 0.01 | 0.01 | 85 | 1007.8 |
| 20260504031602 | 36 | 0 | 0.0 | 0.0 | 0.00 | 0.01 | 0.01 | 83 | 1007.7 |
| 20260504030107 | 36 | 0 | 0.0 | 0.0 | 0.00 | 0.01 | 0.01 | 82 | 1007.7 |
| 20260504024602 | 37 | 0 | 0.0 | 0.0 | 0.00 | 0.01 | 0.01 | 82 | 1007.7 |
| 20260504023059 | 37 | 0 | 0.0 | 0.9 | 0.00 | 0.01 | 0.01 | 80 | 1007.7 |
| 20260504021608 | 38 | 0 | 0.0 | 0.9 | 0.00 | 0.01 | 0.01 | 78 | 1007.7 |
| 20260504020134 | 39 | 0 | 0.0 | 0.9 | 0.00 | 0.01 | 0.01 | 75 | 1007.6 |
| 20260504014607 | 40 | 271 | 0.0 | 0.9 | 0.00 | 0.01 | 0.01 | 71 | 1007.6 |
| 20260504013118 | 41 | 0 | 0.0 | 0.0 | 0.00 | 0.01 | 0.01 | 68 | 1007.5 |
| 20260504011600 | 42 | 0 | 0.0 | 0.0 | 0.00 | 0.01 | 0.01 | 67 | 1007.4 |
| 20260504010057 | 43 | 0 | 0.0 | 0.0 | 0.00 | 0.01 | 0.01 | 65 | 1007.2 |
| 20260504004635 | 44 | 0 | 0.0 | 0.0 | 0.00 | 0.02 | 0.01 | 57 | 1007.0 |
| 20260504003101 | 46 | 0 | 0.0 | 1.7 | 0.00 | 0.02 | 0.01 | 53 | 1006.7 |